Abilene Dyess, TX

10:39 PM CST on November 18, 2019 (GMT -0600)
Dyess Air Force Base

Weather History for KDYS - July, 2019

Change the Weather History Date:

Thursday, July 18, 2019

  Actual Average Record
Temperature  
Mean Temperature 87 °F -  
Max Temperature 99 °F 95 °F 105 °F (2006)
Min Temperature 76 °F 74 °F 66 °F (2014)
Cooling Degree Days 22    
Growing Degree Days 37 (Base 50)    
Moisture  
Dew Point 63 °F    
Average Humidity 45    
Maximum Humidity 71    
Minimum Humidity 29    
Precipitation  
Precipitation 0.00 in - - ()
Sea Level Pressure  
Sea Level Pressure 29.77 in    
Wind  
Wind Speed 18 mph (SSE)    
Max Wind Speed 24 mph    
Max Gust Speed 32 mph    
Visibility 10 miles    
Events      
Averages and records for this station are not official NWS values.
T = Trace of Precipitation, MM = Missing Value Source: NWS Daily Summary

Daily Weather History Graph

Daily Weather History Graph

Search for Another Location

Airport or City:

Astronomy

Jul. 18, 2019 Rise Set
Actual Time 6:44 AM CDT 8:46 PM CDT
Civil Twilight 6:17 AM CDT 9:13 PM CDT
Nautical Twilight 5:43 AM CDT 9:47 PM CDT
Astronomical Twilight 5:07 AM CDT 10:23 PM CDT
Moon 10:16 PM CDT (7/18) 8:13 AM CDT (7/18)
Length of Visible Light 14h 56m
Length of Day
14h 01m
Full, 97% of the Moon is Illuminated
Jul 18
Full
Jul 24
Last Quarter
Jul 31
New
Aug 7
First Quarter
Aug 15
Full

Hourly Weather History & Observations

Time (CDT) Temp. Heat Index Dew Point Humidity Pressure Visibility Wind Dir Wind Speed Gust Speed Precip Events Conditions
12:56 AM 82.9 °F 83.8 °F 62.4 °F 50% 29.81 in 10.0 mi SSE 13.8 mph - N/A   Clear
1:56 AM 82.2 °F 83.5 °F 63.3 °F 53% 29.80 in 10.0 mi SSE 16.1 mph - N/A   Clear
2:56 AM 81.0 °F 82.6 °F 64.2 °F 57% 29.80 in 10.0 mi SSE 18.4 mph 25.3 mph N/A   Clear
3:56 AM 79.2 °F - 64.0 °F 60% 29.80 in 10.0 mi SSE 17.3 mph - N/A   Clear
4:56 AM 77.9 °F - 64.2 °F 63% 29.81 in 10.0 mi SSE 17.3 mph - N/A   Clear
5:56 AM 77.0 °F - 65.1 °F 67% 29.82 in 10.0 mi SSE 19.6 mph - N/A   Clear
6:56 AM 76.3 °F - 66.2 °F 71% 29.82 in 10.0 mi SSE 20.7 mph 26.5 mph N/A   Clear
7:56 AM 77.9 °F - 66.4 °F 68% 29.84 in 10.0 mi South 18.4 mph 26.5 mph N/A   Clear
8:56 AM 81.3 °F 83.2 °F 65.5 °F 58% 29.83 in 10.0 mi South 23.0 mph 29.9 mph N/A   Clear
9:56 AM 84.2 °F 86.3 °F 65.7 °F 54% 29.83 in 10.0 mi South 24.2 mph 28.8 mph N/A   Clear
10:56 AM 86.7 °F 89.0 °F 65.8 °F 50% 29.83 in 10.0 mi South 17.3 mph 27.6 mph N/A   Partly Cloudy
11:56 AM 89.6 °F 92.2 °F 66.0 °F 46% 29.83 in 10.0 mi SSE 23.0 mph 32.2 mph N/A   Clear
12:56 PM 92.5 °F 95.4 °F 66.0 °F 42% 29.80 in 10.0 mi South 24.2 mph 28.8 mph N/A   Partly Cloudy
1:56 PM 94.6 °F 96.8 °F 64.9 °F 37% 29.78 in 10.0 mi South 20.7 mph 31.1 mph N/A   Mostly Cloudy
2:56 PM 96.1 °F 97.8 °F 63.9 °F 34% 29.75 in 10.0 mi SSE 19.6 mph 28.8 mph N/A   Partly Cloudy
3:00 PM 96.8 °F 98.0 °F 62.6 °F 32% 29.75 in 10.0 mi South 18.4 mph 28.8 mph N/A   Partly Cloudy
3:29 PM 96.8 °F 98.0 °F 62.6 °F 32% 29.75 in 10.0 mi SE 21.9 mph 26.5 mph N/A   Partly Cloudy
3:56 PM 97.9 °F 99.3 °F 62.1 °F 31% 29.74 in 10.0 mi SSE 21.9 mph 28.8 mph N/A   Clear
4:56 PM 98.4 °F 99.2 °F 60.6 °F 29% 29.72 in 10.0 mi SSE 17.3 mph 24.2 mph N/A   Clear
5:56 PM 98.4 °F 99.2 °F 60.6 °F 29% 29.70 in 10.0 mi SSE 19.6 mph 26.5 mph N/A   Clear
6:56 PM 97.2 °F 97.2 °F 59.5 °F 29% 29.70 in 10.0 mi SSE 15.0 mph - N/A   Clear
7:56 PM 94.8 °F 94.5 °F 59.4 °F 31% 29.70 in 10.0 mi SSE 17.3 mph - N/A   Clear
8:56 PM 90.5 °F 89.3 °F 57.4 °F 33% 29.71 in 10.0 mi SSE 12.7 mph - N/A   Clear
9:56 PM 85.8 °F 85.0 °F 57.9 °F 39% 29.73 in 10.0 mi SSE 9.2 mph - N/A   Clear
10:56 PM 85.8 °F 85.0 °F 57.9 °F 39% 29.74 in 10.0 mi SSE 12.7 mph - N/A   Clear
11:56 PM 85.1 °F 85.0 °F 60.1 °F 43% 29.75 in 10.0 mi SSE 12.7 mph 19.6 mph N/A   Clear